Find Starlink 35751

NORAD ID: 66208 Int'l Des: 2025-244 Owner: SPXS Country: US Constellation: starlink operational
LEOCIRCULAR

現在のビュー

3D地球を読み込み中...

About Starlink 35751

Starlink 35751 (NORAD 66208) is a starlink constellation satellite (v2 mini) launched Oct 28, 2025 by SPXS of US. It operates in LEO, CIRCULAR orbit with a mass of 575.00 kg.

次回通過

Passes for default location (London). Set your location on the main map for personalized predictions.

高度履歴

Loading altitude history...

軌道要素

1 66208U 25244C 26237.51243244 .00010613 00000-0 32463-3 0 9996
2 66208 53.1584 163.1565 0001472 91.8254 268.2917 15.34416269 47546
Epoch: Aug 25, 2026 • Age: 16 hours

現在のステータス

高度 466.5 km
遠地点 / 近地点 N/A
速度 7.64 km/s
衛星直下点 45.38°N, 171.62°E
打ち上げ日 Oct 28, 2025
運用期間 0.8 years
タイプ internet

技術仕様

分類 Payload
質量 575.00 kg
乾燥質量 530.00 kg
総質量 575.00 kg
長さ 0.30 m
直径 4.10 m
スパン 29.00 m
形状 Box + pan
製造者 SPXS
バスタイプ Starlink V2MO
フェーズステータス In Orbit
所有者/国 SPXS/US

Most Searched